EW3125 Weather Reports


time (UTC)temp
C
wind
direction
speed
KPH
gust
KPH
rain 1hr
cm
rain 24hr
cm
rain mn
cm
humidity
%
barometer
mb
20260504081541 15 157 1.6 6.4 0.00 0.00 0.00 79 1015.2
20260504050446 18 137 6.4 14.5 0.00 0.00 0.00 68 1017.3
20260504044540 18 159 6.4 17.7 0.00 0.00 0.00 68 1017.2
20260504043044 18 150 4.8 17.7 0.00 0.00 0.00 66 1017.5
20260504041542 18 149 9.7 16.1 0.00 0.00 0.00 66 1017.6
20260504040052 18 175 6.4 16.1 0.00 0.00 0.00 65 1017.8
20260504034552 18 137 6.4 12.9 0.00 0.00 0.00 65 1017.5
20260504033042 18 143 6.4 14.5 0.00 0.00 0.00 66 1017.5
20260504031541 18 183 4.8 8.0 0.00 0.00 0.00 65 1017.5
20260504030046 18 158 3.2 8.0 0.00 0.00 0.00 63 1017.4
20260504024542 18 137 3.2 9.7 0.00 0.00 0.00 61 1017.2
20260504023043 18 127 1.6 4.8 0.00 0.00 0.00 59 1017.2
20260504021541 19 116 0.0 3.2 0.00 0.00 0.00 59 1017.0
20260504020051 20 134 1.6 3.2 0.00 0.00 0.00 56 1016.7
20260504014548 20 130 1.6 3.2 0.00 0.00 0.00 54 1016.4
20260504013042 21 126 1.6 1.6 0.00 0.00 0.00 52 1016.5
20260504011547 21 146 1.6 3.2 0.00 0.00 0.00 51 1016.5
20260504010042 22 155 0.0 3.2 0.00 0.00 0.00 49 1016.4
20260504004541 23 0 0.0 3.2 0.00 0.00 0.00 47 1016.4
20260504003041 23 169 1.6 8.0 0.00 0.00 0.00 43 1016.5
20260504001538 24 169 4.8 12.9 0.00 0.00 0.00 40 1016.8
20260504000047 25 192 4.8 17.7 0.00 0.00 0.00 38 1017.0
20260503234543 25 175 9.7 17.7 0.00 0.00 0.00 37 1017.0
20260503233040 25 149 8.0 17.7 0.00 0.00 0.00 39 1017.0
20260503231541 25 198 11.3 19.3 0.00 0.00 0.00 37 1016.9
20260503230047 25 190 8.0 17.7 0.00 0.00 0.00 39 1017.0
20260503224535 25 178 11.3 17.7 0.00 0.00 0.00 38 1017.3
20260503223045 25 169 8.0 22.5 0.00 0.00 0.00 38 1017.5
20260503221541 25 213 4.8 17.7 0.00 0.00 0.00 37 1017.6
20260503220043 26 96 6.4 14.5 0.00 0.00 0.00 38 1017.8
20260503214543 26 206 6.4 19.3 0.00 0.00 0.00 39 1017.9
20260503213040 26 145 8.0 29.0 0.00 0.00 0.00 36 1018.3
20260503211554 25 34 8.0 25.7 0.00 0.00 0.00 38 1018.6
20260503210039 26 148 9.7 20.9 0.00 0.00 0.00 37 1018.8
20260503204542 25 156 9.7 16.1 0.00 0.00 0.00 37 1019.2
20260503203047 25 244 4.8 20.9 0.00 0.00 0.00 38 1019.5
20260503201543 25 182 9.7 17.7 0.00 0.00 0.00 37 1019.6
20260503200055 25 136 8.0 17.7 0.00 0.00 0.00 39 1019.9
20260503194542 25 155 9.7 19.3 0.00 0.00 0.00 40 1020.1
20260503193050 25 178 6.4 14.5 0.00 0.00 0.00 38 1020.3
20260503191545 25 153 9.7 20.9 0.00 0.00 0.00 34 1020.6
20260503190047 25 115 9.7 17.7 0.00 0.00 0.00 39 1020.7
20260503184554 25 201 8.0 17.7 0.00 0.00 0.00 36 1021.0
20260503183043 25 194 4.8 12.9 0.00 0.00 0.00 39 1021.0
20260503181559 24 218 12.9 22.5 0.00 0.00 0.00 39 1021.4
20260503180050 24 178 11.3 20.9 0.00 0.00 0.00 42 1021.8
20260503174549 24 194 6.4 17.7 0.00 0.00 0.00 44 1022.0
20260503173054 23 225 9.7 22.5 0.00 0.00 0.00 44 1022.2
20260503171541 23 168 9.7 22.5 0.00 0.00 0.00 42 1022.5